Location: Newark
(50.0306°N, 2.3272°E)
Time: 21:13:01
(UTC+00:00)

A-11 Canister half - Pass Details

Date: 09 December 2019
Orbit: 1525 x 1684 km, 47.3° (Epoch: 25 January)

Event Time Altitude Azimuth Distance (km) Brightness Sun altitude
Rises 13:39:50 0° 288° (WNW) 4,912 11.8 12.7°
Reaches altitude 10° 13:44:03 10° 274° (W) 3,900 11.5 12.4°
Maximum altitude 13:50:43 21° 231° (SW) 3,084 12.2 11.8°
Drops below altitude 10° 13:57:15 10° 188° (S) 3,804 12.6 11.3°
Sets 14:01:20 0° 173° (S) 4,757 12.5 11.0°
